Weather reports worldwide

Advertisment
Jersey Airport, United Kingdom (3895): temperature & dewpoint: 13.04.2019 00:00:00 - 19.04.2019 00:00:00 (BST)Jersey Airport, United Kingdom (3895): temperature -20cm & temperature -100cm: 13.04.2019 00:00:00 - 19.04.2019 00:00:00 (BST)Jersey Airport, United Kingdom (3895): wind speed & gusts: 13.04.2019 00:00:00 - 19.04.2019 00:00:00 (BST)Jersey Airport, United Kingdom (3895): wind direction: 13.04.2019 00:00:00 - 19.04.2019 00:00:00 (BST)Jersey Airport, United Kingdom (3895): reduced air pressure: 13.04.2019 00:00:00 - 19.04.2019 00:00:00 (BST)Jersey Airport, United Kingdom (3895): visibility: 13.04.2019 00:00:00 - 19.04.2019 00:00:00 (BST)Jersey Airport, United Kingdom (3895): sunshine duration: 13.04.2019 00:00:00 - 19.04.2019 00:00:00 (BST)Jersey Airport, United Kingdom (3895): precipitation: 13.04.2019 00:00:00 - 19.04.2019 00:00:00 (BST)
Date & Time tt [°C] td [°C] tt -20cm [°C] tt -100cm [°C] ff [km/h] ff [kn] fx [km/h] fx [kn] dd ppp [hPa] vv [km] sd [min] rr [mm]
19.04.2019 00:00:00 14,1 8,0 - - 26 14 - - E 1021,7 10 0 0,0
18.04.2019 23:00:00 14,0 7,7 - - 24 13 - - ENE 1021,3 10 0 0,0
18.04.2019 22:00:00 14,7 7,3 - - 21 11 - - ENE 1021,0 10 0 0,0
18.04.2019 21:00:00 15,2 8,0 - - 21 11 - - ENE 1020,6 10 0 0,0
18.04.2019 20:00:00 15,6 9,3 - - 21 11 - - ENE 1020,1 10 0 0,0
18.04.2019 19:00:00 16,4 10,1 - - 21 11 - - ENE 1019,7 10 6 0,0
18.04.2019 18:00:00 16,6 10,5 - - 22 12 - - ENE 1019,2 10 0 0,0
18.04.2019 17:00:00 17,5 11,1 - - 26 14 - - E 1018,7 10 0 0,0
18.04.2019 16:00:00 17,4 11,1 - - 21 11 - - ENE 1018,5 18 0 0,0
18.04.2019 15:00:00 17,3 11,4 - - 26 14 - - E 1018,4 10 0 0,0
18.04.2019 14:00:00 17,0 11,0 - - 28 15 - - ENE 1017,9 10 0 0,0
18.04.2019 13:00:00 17,0 10,9 - - 31 17 - - E 1017,8 10 30 0,0
18.04.2019 12:00:00 17,2 10,7 - - 24 13 - - ENE 1018,2 35 60 0,0
18.04.2019 11:00:00 15,8 10,5 - - 24 13 - - E 1018,1 10 18 0,0
18.04.2019 10:00:00 13,7 9,3 12,5 10,7 26 14 - - E 1018,1 10 6 0,0
18.04.2019 09:00:00 12,7 9,0 - - 24 13 - - E 1017,6 10 0 0,0
18.04.2019 08:00:00 11,7 8,2 - - 24 13 - - E 1017,2 10 0 0,0
18.04.2019 07:00:00 10,9 7,9 - - 29 16 - - E 1016,6 10 0 0,0
18.04.2019 06:00:00 11,2 7,4 - - 29 16 - - E 1016,3 10 0 0,0
18.04.2019 05:00:00 11,4 7,1 - - 28 15 - - E 1016,5 10 0 0,0
18.04.2019 04:00:00 11,9 7,0 - - 29 16 - - E 1016,8 10 0 0,0
18.04.2019 03:00:00 11,5 6,7 - - 22 12 - - ENE 1017,1 35 0 0,0
18.04.2019 02:00:00 11,8 6,8 - - 21 11 - - E 1017,1 40 0 0,0
18.04.2019 01:00:00 12,1 7,4 - - 24 13 - - E 1017,0 10 - 0,0
18.04.2019 00:00:00 11,5 7,7 - - 22 12 - - E 1017,2 10 0 0,0
17.04.2019 23:00:00 11,1 8,1 - - 26 14 - - E 1016,8 10 0 0,0
17.04.2019 22:00:00 11,3 7,9 - - 31 17 46 25 ENE 1016,8 10 0 0,0
17.04.2019 21:00:00 11,4 7,4 - - 29 16 46 25 ENE 1016,2 10 0 0,0
17.04.2019 20:00:00 12,4 7,8 - - 29 16 46 25 ENE 1016,0 26 6 0,0
17.04.2019 19:00:00 13,5 8,2 - - 34 18 48 26 ENE 1015,3 10 54 0,0
17.04.2019 18:00:00 14,5 9,2 - - 34 18 48 26 ENE 1015,5 22 24 0,0
17.04.2019 17:00:00 15,8 9,9 - - 31 17 - - ENE 1015,6 10 60 0,0
17.04.2019 16:00:00 16,4 10,6 - - 29 16 - - ENE 1015,6 10 60 0,0
17.04.2019 15:00:00 17,2 10,9 - - 22 12 - - ENE 1016,0 29 60 0,0
17.04.2019 14:00:00 17,2 9,8 - - 24 13 - - E 1016,6 10 60 0,0
17.04.2019 13:00:00 16,3 9,6 - - 18 10 - - E 1016,9 24 60 0,0
17.04.2019 12:00:00 15,2 8,6 - - 24 13 - - ESE 1017,5 10 60 0,0
17.04.2019 11:00:00 14,4 7,9 - - 26 14 - - E 1018,0 10 60 0,0
17.04.2019 10:00:00 11,8 8,1 12,0 10,7 24 13 - - E 1018,0 10 6 0,0
17.04.2019 09:00:00 10,5 8,6 - - 16 9 - - E 1018,1 40 0 0,0
17.04.2019 08:00:00 9,4 8,4 - - 22 12 - - E 1018,0 10 0 0,0
17.04.2019 07:00:00 8,0 7,5 - - 18 10 - - E 1018,1 10 0 0,2
17.04.2019 06:00:00 7,1 6,9 - - 16 9 - - E 1017,9 10 0 0,0
17.04.2019 05:00:00 7,3 7,2 - - 13 7 - - ENE 1018,1 10 0 0,0
17.04.2019 04:00:00 6,8 6,8 - - 11 6 - - E 1018,4 10 0 0,0
17.04.2019 03:00:00 7,7 7,7 - - 5 3 - - E 1018,6 0,1 0 0,0
17.04.2019 02:00:00 6,8 6,8 - - 4 2 - - E 1019,0 0,2 0 0,0
17.04.2019 01:00:00 7,8 7,7 - - 5 3 - - SE 1019,1 2,3 - 0,0
17.04.2019 00:00:00 7,6 7,4 - - 9 5 - - SSE 1019,3 4,5 0 0,0
16.04.2019 23:00:00 8,2 7,9 - - 5 3 - - SE 1019,2 8 0 0,0
16.04.2019 22:00:00 8,2 7,8 - - 4 2 - - - 1019,2 9 0 0,0
16.04.2019 21:00:00 8,9 7,9 - - 4 2 - - - 1018,9 10 0 0,0
16.04.2019 20:00:00 9,9 8,2 - - 5 3 - - NW 1018,2 10 36 0,0
16.04.2019 19:00:00 11,6 8,0 - - 15 8 - - NW 1017,7 10 60 0,0
16.04.2019 18:00:00 12,4 8,6 - - 16 9 - - NW 1017,3 17 60 0,0
16.04.2019 17:00:00 12,1 9,6 - - 16 9 - - WNW 1017,5 10 60 0,0
16.04.2019 16:00:00 12,5 9,6 - - 22 12 - - W 1017,3 17 60 0,0
16.04.2019 15:00:00 12,7 11,3 - - 24 13 - - W 1017,3 10 54 0,0
16.04.2019 14:00:00 11,6 9,7 - - 24 13 - - W 1017,0 10 18 0,0
16.04.2019 13:00:00 12,0 10,6 - - 21 11 - - W 1016,5 10 24 0,0
16.04.2019 12:00:00 11,8 10,3 - - 18 10 - - W 1016,3 10 18 0,0
16.04.2019 11:00:00 10,3 9,4 - - 18 10 - - W 1016,0 10 18 0,0
16.04.2019 10:00:00 10,2 10,1 11,4 10,7 18 10 - - WNW 1015,5 10 0 0,0
16.04.2019 09:00:00 9,2 9,2 - - 18 10 - - WNW 1015,1 3,0 0 0,4
16.04.2019 08:00:00 9,0 8,9 - - 16 9 - - W 1014,6 0,7 0 0,6
16.04.2019 07:00:00 8,7 8,5 - - 9 5 - - W 1013,7 5 0 0,2
16.04.2019 06:00:00 8,8 8,5 - - 11 6 - - W 1013,0 2,4 0 0,2
16.04.2019 05:00:00 8,8 8,5 - - 9 5 - - WSW 1012,6 2,9 0 0,4
16.04.2019 04:00:00 8,9 8,6 - - 8 4 - - S 1012,4 3,9 0 0,2
16.04.2019 03:00:00 8,8 8,4 - - 9 5 - - SE 1012,4 4,0 0 0,2
16.04.2019 02:00:00 8,8 8,2 - - 9 5 - - E 1012,5 3,9 0 0,4
16.04.2019 01:00:00 9,1 8,2 - - 9 5 - - SE 1012,8 7 - 0,2
16.04.2019 00:00:00 9,2 7,6 - - 11 6 - - SSE 1012,7 9 0 0,8
15.04.2019 23:00:00 9,8 7,6 - - 15 8 - - SE 1012,5 5 0 1,8
15.04.2019 22:00:00 10,7 7,0 - - 16 9 - - SE 1011,8 10 0 0,4
15.04.2019 21:00:00 11,2 6,2 - - 16 9 - - SE 1011,3 11 0 0,0
15.04.2019 20:00:00 11,8 5,3 - - 13 7 - - ESE 1010,9 10 0 0,0
15.04.2019 19:00:00 12,1 6,0 - - 15 8 - - S 1011,3 10 0 0,0
15.04.2019 18:00:00 13,5 3,8 - - 9 5 - - SSW 1011,5 10 0 0,0
15.04.2019 17:00:00 13,5 3,4 - - 26 14 - - ESE 1010,4 10 0 0,0
15.04.2019 16:00:00 13,1 4,4 - - 31 17 55 30 SE 1011,2 10 12 0,0
15.04.2019 15:00:00 14,4 2,9 - - 41 22 61 33 ESE 1011,5 10 60 0,0
15.04.2019 14:00:00 13,4 4,5 - - 39 21 55 30 ESE 1012,4 10 18 0,0
15.04.2019 13:00:00 11,7 2,9 - - 39 21 59 32 SE 1013,1 10 24 0,0
15.04.2019 12:00:00 10,8 2,5 - - 44 24 61 33 ESE 1014,0 18 18 0,0
15.04.2019 11:00:00 9,8 0,7 - - 41 22 61 33 ESE 1015,3 25 60 0,0
15.04.2019 10:00:00 9,0 1,3 11,0 10,7 35 19 52 28 ESE 1016,2 10 42 0,0
15.04.2019 09:00:00 7,9 0,8 - - 34 18 50 27 ESE 1016,9 10 12 0,0
15.04.2019 08:00:00 6,7 -0,5 - - 35 19 50 27 ESE 1017,7 10 12 0,0
15.04.2019 07:00:00 6,7 -0,6 - - 34 18 - - ESE 1018,1 10 0 0,0
15.04.2019 06:00:00 6,6 -0,8 - - 31 17 46 25 ESE 1018,2 10 0 0,0
15.04.2019 05:00:00 6,8 0,0 - - 28 15 - - ESE 1019,2 16 0 0,0
15.04.2019 04:00:00 7,1 -0,3 - - 29 16 48 26 ESE 1019,4 10 0 0,0
15.04.2019 03:00:00 7,3 -0,7 - - 31 17 - - ESE 1019,9 20 0 0,0
15.04.2019 02:00:00 7,4 -0,4 - - 34 18 50 27 ESE 1020,3 10 0 0,0
15.04.2019 01:00:00 7,7 -0,4 - - 37 20 48 26 ESE 1020,5 10 - 0,0
15.04.2019 00:00:00 7,4 0,9 - - 31 17 - - ESE 1020,8 10 0 0,0
14.04.2019 23:00:00 8,0 1,1 - - 26 14 - - ESE 1021,2 10 0 0,0
14.04.2019 22:00:00 7,4 2,2 - - 24 13 - - E 1021,2 10 0 0,0
14.04.2019 21:00:00 7,1 2,1 - - 24 13 - - E 1021,0 17 0 0,0
14.04.2019 20:00:00 7,3 2,0 - - 34 18 - - E 1020,6 10 0 0,0
14.04.2019 19:00:00 7,6 1,5 - - 29 16 - - E 1020,6 10 0 0,0
14.04.2019 18:00:00 8,3 0,8 - - 24 13 - - E 1020,9 10 0 0,0
14.04.2019 17:00:00 8,8 -1,2 - - 26 14 - - E 1020,8 10 0 0,0
14.04.2019 16:00:00 9,2 -1,2 - - 18 10 - - ESE 1021,7 10 6 0,0
14.04.2019 15:00:00 8,9 -1,8 - - 21 11 - - ESE 1021,9 10 0 0,0
14.04.2019 14:00:00 8,2 -1,9 - - 22 12 - - ESE 1022,2 10 6 0,0
14.04.2019 13:00:00 9,1 -1,5 - - 24 13 - - E 1021,7 35 42 0,0
14.04.2019 12:00:00 8,3 -1,4 - - 26 14 - - ESE 1022,5 30 30 0,0
14.04.2019 11:00:00 7,7 -1,4 - - 28 15 - - ESE 1022,1 10 18 0,0
14.04.2019 10:00:00 7,6 0,8 11,2 10,7 24 13 - - ESE 1022,8 10 30 0,0
14.04.2019 09:00:00 6,0 0,9 - - 18 10 - - ESE 1022,7 30 0 0,0
14.04.2019 08:00:00 4,8 0,9 - - 24 13 - - E 1022,5 19 0 0,0
14.04.2019 07:00:00 4,5 0,1 - - 24 13 - - E 1022,6 10 0 0,0
14.04.2019 06:00:00 4,5 0,0 - - 24 13 - - E 1022,0 10 0 0,0
14.04.2019 05:00:00 4,6 0,1 - - 24 13 - - E 1022,2 10 0 0,0
14.04.2019 04:00:00 4,8 0,1 - - 26 14 - - E 1022,2 10 0 0,0
14.04.2019 03:00:00 5,2 0,6 - - 26 14 - - E 1022,2 25 0 0,0
14.04.2019 02:00:00 5,5 1,0 - - 26 14 46 25 E 1022,5 19 0 0,0
14.04.2019 01:00:00 5,6 0,8 - - 31 17 48 26 E 1022,9 10 - 0,0
14.04.2019 00:00:00 5,5 1,5 - - 31 17 - - E 1023,1 10 0 0,0
13.04.2019 23:00:00 5,7 0,9 - - 29 16 - - E 1023,1 10 0 0,0
13.04.2019 22:00:00 5,7 0,4 - - 26 14 - - E 1023,3 10 0 0,0
13.04.2019 21:00:00 6,1 0,4 - - 29 16 - - E 1023,5 10 0 0,0
13.04.2019 20:00:00 6,5 -1,0 - - 29 16 - - E 1023,1 10 0 0,0
13.04.2019 19:00:00 7,1 -0,7 - - 26 14 - - E 1022,7 10 24 0,0
13.04.2019 18:00:00 8,4 -1,0 - - 28 15 - - ENE 1023,2 24 60 0,0
13.04.2019 17:00:00 9,9 -2,4 - - 24 13 - - ENE 1023,4 10 60 0,0
13.04.2019 16:00:00 9,3 -3,6 - - 26 14 - - ENE 1023,6 10 60 0,0
13.04.2019 15:00:00 9,6 -1,3 - - 24 13 - - ENE 1024,0 22 54 0,0
13.04.2019 14:00:00 11,0 0,4 - - 29 16 - - ESE 1024,0 10 54 0,0
13.04.2019 13:00:00 9,9 -1,7 - - 28 15 46 25 ESE 1024,5 10 60 0,0
13.04.2019 12:00:00 9,8 0,1 - - 26 14 - - SE 1024,8 10 60 0,0
13.04.2019 11:00:00 8,9 -1,4 - - 29 16 - - ESE 1024,8 28 60 0,0
13.04.2019 10:00:00 7,9 -1,7 11,4 10,7 28 15 - - ESE 1024,9 10 60 0,0
13.04.2019 09:00:00 7,1 -1,6 - - 28 15 - - SE 1025,0 10 60 0,0
13.04.2019 08:00:00 6,1 -0,4 - - 18 10 - - ESE 1025,2 24 48 0,0
13.04.2019 07:00:00 2,7 -0,9 - - 18 10 - - ESE 1025,3 10 0 0,0
13.04.2019 06:00:00 3,6 -1,0 - - 24 13 - - ESE 1024,7 10 0 0,0
13.04.2019 05:00:00 3,9 -0,7 - - 24 13 - - ESE 1024,5 10 0 0,0
13.04.2019 04:00:00 4,0 -0,3 - - 22 12 - - ESE 1024,5 10 0 0,0
13.04.2019 03:00:00 4,4 1,2 - - 22 12 - - E 1024,6 10 0 0,0
13.04.2019 02:00:00 5,1 1,0 - - 24 13 - - E 1024,4 10 0 0,0
13.04.2019 01:00:00 5,5 1,4 - - 24 13 - - E 1024,5 10 - 0,0
13.04.2019 00:00:00 5,8 1,3 - - 26 14 - - E 1024,2 10 0 0,0

tt = temperature
td = dewpoint
tt -20cm = temperature -20cm
tt -100cm = temperature -100cm
ff = wind speed
fx = gusts
dd = wind direction
ppp = reduced air pressure
vv = visibility
sd = sunshine duration
rr = precipitation

Next stations